TimeCST,TemperatureF,Dew PointF,Humidity,Sea Level PressureIn,VisibilityMPH,Wind Direction,Wind SpeedMPH,Gust SpeedMPH,PrecipitationIn,Events,Conditions,WindDirDegrees,DateUTC
12:15 AM,46.0,28.0,50,30.11,10.0,South,5.8,-,N/A,,Clear,180,2012-11-30 06:15:00
12:35 AM,44.2,28.0,53,30.11,10.0,South,4.6,-,N/A,,Clear,190,2012-11-30 06:35:00
12:55 AM,42.8,27.5,55,30.10,10.0,South,5.8,-,N/A,,Clear,190,2012-11-30 06:55:00
1:15 AM,44.1,28.8,55,30.10,10.0,SSW,6.9,-,N/A,,Clear,210,2012-11-30 07:15:00
1:35 AM,42.3,28.2,58,30.10,10.0,Calm,Calm,-,N/A,,Clear,0,2012-11-30 07:35:00
1:55 AM,41.2,27.7,59,30.11,10.0,SE,3.5,-,N/A,,Clear,140,2012-11-30 07:55:00
2:15 AM,40.3,27.5,60,30.11,10.0,East,4.6,-,N/A,,Clear,100,2012-11-30 08:15:00
2:35 AM,41.5,28.2,59,30.11,10.0,Calm,Calm,-,N/A,,Clear,0,2012-11-30 08:35:00
2:55 AM,40.1,27.9,62,30.11,10.0,ESE,3.5,-,N/A,,Clear,120,2012-11-30 08:55:00
3:15 AM,39.6,30.6,70,30.11,10.0,ESE,4.6,-,N/A,,Clear,110,2012-11-30 09:15:00
3:35 AM,41.0,32.0,70,30.11,10.0,ESE,3.5,-,N/A,,Clear,120,2012-11-30 09:35:00
3:55 AM,39.9,30.7,70,30.11,10.0,ESE,3.5,-,N/A,,Clear,110,2012-11-30 09:55:00
4:15 AM,38.8,30.7,73,30.11,10.0,SSE,3.5,-,N/A,,Clear,150,2012-11-30 10:15:00
4:35 AM,38.7,29.8,71,30.10,10.0,Calm,Calm,-,N/A,,Clear,0,2012-11-30 10:35:00
4:55 AM,38.8,31.3,74,30.11,10.0,Calm,Calm,-,N/A,,Clear,0,2012-11-30 10:55:00
5:15 AM,37.9,29.5,72,30.11,10.0,Calm,Calm,-,N/A,,Clear,0,2012-11-30 11:15:00
5:35 AM,36.7,28.8,73,30.11,10.0,Calm,Calm,-,N/A,,Clear,0,2012-11-30 11:35:00
5:55 AM,36.1,27.7,71,30.11,10.0,Calm,Calm,-,N/A,,Clear,0,2012-11-30 11:55:00
6:15 AM,36.9,28.0,70,30.11,10.0,Calm,Calm,-,N/A,,Clear,0,2012-11-30 12:15:00
6:35 AM,36.7,27.5,69,30.12,10.0,Calm,Calm,-,N/A,,Clear,0,2012-11-30 12:35:00
6:55 AM,35.1,26.4,71,30.12,10.0,Calm,Calm,-,N/A,,Clear,0,2012-11-30 12:55:00
7:15 AM,36.7,28.0,71,30.13,10.0,Calm,Calm,-,N/A,,Clear,0,2012-11-30 13:15:00
7:35 AM,37.4,29.7,74,30.13,10.0,Calm,Calm,-,N/A,,Clear,0,2012-11-30 13:35:00
7:55 AM,32.4,24.8,74,30.14,10.0,Calm,Calm,-,N/A,,Clear,0,2012-11-30 13:55:00
8:15 AM,35.4,27.1,72,30.15,10.0,Calm,Calm,-,N/A,,Clear,0,2012-11-30 14:15:00
8:35 AM,39.0,29.7,69,30.15,7.0,Calm,Calm,-,N/A,,Clear,0,2012-11-30 14:35:00
8:55 AM,43.9,30.7,60,30.15,10.0,Calm,Calm,-,N/A,,Clear,0,2012-11-30 14:55:00
9:15 AM,47.3,31.3,54,30.16,10.0,Calm,Calm,-,N/A,,Clear,0,2012-11-30 15:15:00
9:35 AM,49.5,32.0,51,30.15,10.0,Calm,Calm,-,N/A,,Clear,0,2012-11-30 15:35:00
9:55 AM,52.9,33.1,47,30.16,10.0,Calm,Calm,-,N/A,,Clear,0,2012-11-30 15:55:00
10:35 AM,58.5,33.6,39,30.15,10.0,Calm,Calm,-,N/A,,Clear,0,2012-11-30 16:35:00
10:55 AM,62.2,35.1,36,30.15,10.0,East,4.6,-,N/A,,Clear,100,2012-11-30 16:55:00
11:15 AM,63.9,35.4,35,30.14,10.0,ESE,3.5,-,N/A,,Clear,110,2012-11-30 17:15:00
11:35 AM,66.0,35.8,33,30.13,10.0,ENE,3.5,-,N/A,,Clear,70,2012-11-30 17:35:00
11:55 AM,67.8,35.8,31,30.12,10.0,Calm,Calm,-,N/A,,Clear,0,2012-11-30 17:55:00
12:35 PM,73.2,35.8,26,30.09,10.0,ESE,6.9,-,N/A,,Clear,120,2012-11-30 18:35:00
12:55 PM,75.7,35.4,23,30.07,10.0,SE,6.9,-,N/A,,Clear,130,2012-11-30 18:55:00
1:15 PM,78.1,34.3,20,30.06,10.0,North,3.5,-,N/A,,Clear,360,2012-11-30 19:15:00
1:35 PM,79.5,31.8,18,30.05,10.0,West,13.8,-,N/A,,Clear,270,2012-11-30 19:35:00
1:55 PM,81.1,31.6,17,30.05,10.0,West,13.8,20.7,N/A,,Clear,260,2012-11-30 19:55:00
2:15 PM,81.5,30.7,16,30.04,10.0,West,20.7,26.5,N/A,,Clear,270,2012-11-30 20:15:00
2:35 PM,81.3,30.6,16,30.03,10.0,West,20.7,25.3,N/A,,Clear,260,2012-11-30 20:35:00
2:55 PM,81.5,30.7,16,30.02,10.0,West,15.0,24.2,N/A,,Clear,270,2012-11-30 20:55:00
3:15 PM,80.8,30.6,16,30.02,10.0,West,18.4,21.9,N/A,,Clear,270,2012-11-30 21:15:00
3:55 PM,80.6,30.9,16,30.00,10.0,West,10.4,-,N/A,,Clear,280,2012-11-30 21:55:00
4:15 PM,80.6,30.7,16,30.00,10.0,West,11.5,-,N/A,,Clear,260,2012-11-30 22:15:00
5:35 PM,74.7,28.2,18,30.00,10.0,West,6.9,-,N/A,,Clear,270,2012-11-30 23:35:00
5:55 PM,70.3,28.2,21,30.00,10.0,WSW,8.1,-,N/A,,Clear,250,2012-11-30 23:55:00
6:15 PM,67.3,27.9,23,30.01,10.0,West,10.4,-,N/A,,Clear,260,2012-12-01 00:15:00
6:35 PM,64.2,27.3,25,30.01,10.0,West,8.1,-,N/A,,Clear,260,2012-12-01 00:35:00
7:15 PM,63.0,27.5,26,30.02,10.0,WSW,6.9,-,N/A,,Clear,250,2012-12-01 01:15:00
8:15 PM,56.8,27.0,32,30.03,10.0,WSW,8.1,-,N/A,,Clear,250,2012-12-01 02:15:00
8:35 PM,52.9,25.7,35,30.03,10.0,SSE,6.9,-,N/A,,Clear,150,2012-12-01 02:35:00
9:15 PM,50.0,26.2,40,30.04,10.0,SSW,6.9,-,N/A,,Clear,200,2012-12-01 03:15:00
9:35 PM,50.0,26.2,40,30.05,10.0,Calm,Calm,-,N/A,,Clear,0,2012-12-01 03:35:00
10:35 PM,46.4,25.7,44,30.05,10.0,SSE,9.2,-,N/A,,Clear,160,2012-12-01 04:35:00
10:55 PM,47.3,25.7,43,30.05,10.0,South,5.8,-,N/A,,Clear,180,2012-12-01 04:55:00
11:15 PM,46.8,25.7,44,30.06,10.0,South,5.8,-,N/A,,Clear,180,2012-12-01 05:15:00
11:35 PM,46.8,25.7,44,30.06,10.0,South,6.9,-,N/A,,Clear,190,2012-12-01 05:35:00
11:55 PM,46.6,25.9,44,30.06,10.0,SW,3.5,-,N/A,,Clear,220,2012-12-01 05:55:00